TimeCDT,TemperatureF,Dew PointF,Humidity,Sea Level PressureIn,VisibilityMPH,Wind Direction,Wind SpeedMPH,Gust SpeedMPH,PrecipitationIn,Events,Conditions,WindDirDegrees,DateUTC
12:15 AM,70.0,52.2,53,30.12,10.0,East,5.8,-,N/A,,Clear,90,2013-07-01 05:15:00
12:35 AM,68.5,52.3,56,30.13,10.0,East,3.5,-,N/A,,Clear,90,2013-07-01 05:35:00
12:55 AM,67.8,52.3,58,30.13,10.0,Calm,Calm,-,N/A,,Clear,0,2013-07-01 05:55:00
1:15 AM,64.4,53.2,67,30.13,10.0,Calm,Calm,-,N/A,,Clear,0,2013-07-01 06:15:00
1:35 AM,65.8,52.9,63,30.13,10.0,Calm,Calm,-,N/A,,Clear,0,2013-07-01 06:35:00
1:55 AM,65.5,52.9,64,30.14,10.0,Calm,Calm,-,N/A,,Clear,0,2013-07-01 06:55:00
2:15 AM,61.9,52.9,72,30.14,10.0,Calm,Calm,-,N/A,,Clear,0,2013-07-01 07:15:00
2:35 AM,64.2,53.4,68,30.14,10.0,Calm,Calm,-,N/A,,Clear,0,2013-07-01 07:35:00
2:55 AM,60.1,52.7,77,30.14,10.0,Calm,Calm,-,N/A,,Clear,0,2013-07-01 07:55:00
3:15 AM,62.2,53.4,73,30.14,10.0,Calm,Calm,-,N/A,,Clear,0,2013-07-01 08:15:00
3:35 AM,59.0,52.5,79,30.14,10.0,Calm,Calm,-,N/A,,Clear,0,2013-07-01 08:35:00
3:55 AM,61.2,53.1,75,30.14,10.0,Calm,Calm,-,N/A,,Scattered Clouds,0,2013-07-01 08:55:00
4:15 AM,60.1,52.7,77,30.15,10.0,Calm,Calm,-,N/A,,Mostly Cloudy,0,2013-07-01 09:15:00
4:35 AM,59.2,52.9,80,30.15,10.0,Calm,Calm,-,N/A,,Mostly Cloudy,0,2013-07-01 09:35:00
4:55 AM,60.1,52.9,77,30.16,10.0,Calm,Calm,-,N/A,,Mostly Cloudy,0,2013-07-01 09:55:00
5:15 AM,60.3,53.1,77,30.16,10.0,Calm,Calm,-,N/A,,Scattered Clouds,0,2013-07-01 10:15:00
5:35 AM,58.1,52.9,83,30.16,10.0,Calm,Calm,-,N/A,,Scattered Clouds,0,2013-07-01 10:35:00
5:55 AM,60.3,53.6,79,30.17,10.0,Calm,Calm,-,N/A,,Scattered Clouds,0,2013-07-01 10:55:00
6:15 AM,57.7,52.7,83,30.18,10.0,Calm,Calm,-,N/A,,Clear,0,2013-07-01 11:15:00
6:35 AM,60.3,53.6,79,30.18,10.0,Calm,Calm,-,N/A,,Mostly Cloudy,0,2013-07-01 11:35:00
6:55 AM,58.6,53.2,82,30.18,10.0,Calm,Calm,-,N/A,,Scattered Clouds,0,2013-07-01 11:55:00
7:15 AM,59.9,53.6,80,30.19,10.0,Calm,Calm,-,N/A,,Clear,0,2013-07-01 12:15:00
7:35 AM,59.9,54.7,83,30.19,10.0,Calm,Calm,-,N/A,,Clear,0,2013-07-01 12:35:00
7:55 AM,62.1,54.7,77,30.20,10.0,Calm,Calm,-,N/A,,Clear,0,2013-07-01 12:55:00
8:15 AM,64.9,53.2,66,30.20,10.0,East,4.6,-,N/A,,Clear,90,2013-07-01 13:15:00
8:35 AM,66.2,53.6,64,30.20,10.0,ENE,4.6,-,N/A,,Clear,70,2013-07-01 13:35:00
8:55 AM,68.2,52.5,57,30.21,10.0,ENE,6.9,-,N/A,,Clear,70,2013-07-01 13:55:00
9:15 AM,69.3,53.1,56,30.21,10.0,East,6.9,-,N/A,,Clear,90,2013-07-01 14:15:00
9:35 AM,70.0,52.9,55,30.21,10.0,NE,6.9,-,N/A,,Clear,50,2013-07-01 14:35:00
9:55 AM,71.2,51.4,50,30.21,10.0,East,6.9,-,N/A,,Clear,90,2013-07-01 14:55:00
10:15 AM,72.3,51.4,48,30.21,10.0,ENE,6.9,-,N/A,,Clear,70,2013-07-01 15:15:00
10:35 AM,73.0,51.3,46,30.21,10.0,North,6.9,-,N/A,,Clear,10,2013-07-01 15:35:00
10:55 AM,73.6,51.4,46,30.20,10.0,NE,5.8,-,N/A,,Clear,50,2013-07-01 15:55:00
11:15 AM,75.2,51.8,44,30.20,10.0,NNE,6.9,-,N/A,,Clear,20,2013-07-01 16:15:00
11:35 AM,76.3,52.2,43,30.21,10.0,East,6.9,17.3,N/A,,Clear,80,2013-07-01 16:35:00
11:55 AM,76.1,51.8,43,30.20,10.0,NNW,5.8,9.2,N/A,,Clear,340,2013-07-01 16:55:00
12:15 PM,76.5,51.4,42,30.20,10.0,NNE,6.9,11.5,N/A,,Clear,30,2013-07-01 17:15:00
12:55 PM,77.5,52.9,42,30.19,10.0,NNE,6.9,10.4,N/A,,Clear,30,2013-07-01 17:55:00
1:15 PM,78.4,52.0,40,30.19,10.0,NE,8.1,-,N/A,,Clear,50,2013-07-01 18:15:00
1:35 PM,77.7,52.2,41,30.18,10.0,NNE,10.4,19.6,N/A,,Clear,30,2013-07-01 18:35:00
1:55 PM,78.6,52.0,39,30.18,10.0,NE,12.7,-,N/A,,Scattered Clouds,40,2013-07-01 18:55:00
2:15 PM,78.6,50.5,37,30.18,10.0,ENE,10.4,16.1,N/A,,Clear,60,2013-07-01 19:15:00
2:35 PM,78.4,48.6,35,30.18,10.0,NE,9.2,17.3,N/A,,Clear,40,2013-07-01 19:35:00
2:55 PM,78.6,45.7,31,30.17,10.0,NE,12.7,-,N/A,,Clear,50,2013-07-01 19:55:00
3:15 PM,77.9,42.6,28,30.17,10.0,NNE,11.5,16.1,N/A,,Clear,30,2013-07-01 20:15:00
3:55 PM,77.2,45.5,32,30.16,10.0,ENE,10.4,17.3,N/A,,Clear,60,2013-07-01 20:55:00
4:15 PM,77.0,43.5,30,30.17,10.0,NNE,10.4,-,N/A,,Clear,30,2013-07-01 21:15:00
4:35 PM,77.2,46.2,33,30.16,10.0,NE,10.4,-,N/A,,Clear,40,2013-07-01 21:35:00
4:55 PM,77.4,45.7,32,30.16,10.0,ENE,4.6,-,N/A,,Clear,70,2013-07-01 21:55:00
5:15 PM,79.0,46.2,31,30.15,10.0,NNE,6.9,-,N/A,,Clear,30,2013-07-01 22:15:00
5:35 PM,78.8,46.4,32,30.14,10.0,ENE,3.5,-,N/A,,Clear,60,2013-07-01 22:35:00
5:55 PM,80.4,45.5,29,30.13,10.0,NE,9.2,-,N/A,,Clear,50,2013-07-01 22:55:00
6:15 PM,81.3,44.2,27,30.13,10.0,NE,11.5,17.3,N/A,,Clear,50,2013-07-01 23:15:00
6:35 PM,80.6,43.5,27,30.13,10.0,NNE,11.5,16.1,N/A,,Clear,30,2013-07-01 23:35:00
6:55 PM,80.4,44.6,28,30.13,10.0,NE,11.5,-,N/A,,Clear,50,2013-07-01 23:55:00
7:15 PM,80.2,43.5,27,30.13,10.0,NE,10.4,-,N/A,,Clear,50,2013-07-02 00:15:00
7:35 PM,79.7,43.2,27,30.13,10.0,NE,6.9,-,N/A,,Clear,50,2013-07-02 00:35:00
7:55 PM,79.0,43.7,29,30.14,10.0,NE,8.1,-,N/A,,Clear,40,2013-07-02 00:55:00
8:15 PM,78.3,43.2,29,30.14,10.0,NE,5.8,-,N/A,,Clear,50,2013-07-02 01:15:00
8:35 PM,77.5,42.4,29,30.14,10.0,NE,6.9,-,N/A,,Clear,50,2013-07-02 01:35:00
8:55 PM,75.9,43.5,31,30.14,10.0,ENE,3.5,-,N/A,,Clear,70,2013-07-02 01:55:00
9:15 PM,73.4,44.1,35,30.15,10.0,East,5.8,-,N/A,,Clear,80,2013-07-02 02:15:00
9:35 PM,72.5,44.1,36,30.15,10.0,East,3.5,-,N/A,,Clear,80,2013-07-02 02:35:00
9:55 PM,71.4,44.2,38,30.16,10.0,East,4.6,-,N/A,,Clear,80,2013-07-02 02:55:00
10:15 PM,70.3,44.1,39,30.16,10.0,East,4.6,-,N/A,,Clear,80,2013-07-02 03:15:00
10:35 PM,68.7,44.8,42,30.17,10.0,Calm,Calm,-,N/A,,Clear,0,2013-07-02 03:35:00
10:55 PM,65.5,46.0,49,30.18,10.0,Calm,Calm,-,N/A,,Clear,0,2013-07-02 03:55:00
11:15 PM,66.4,44.6,45,30.18,10.0,East,3.5,-,N/A,,Clear,100,2013-07-02 04:15:00
11:35 PM,62.1,46.8,57,30.19,10.0,West,3.5,-,N/A,,Clear,260,2013-07-02 04:35:00
11:55 PM,62.1,47.8,60,30.19,10.0,Calm,Calm,-,N/A,,Clear,0,2013-07-02 04:55:00